Regional Weather Roundup
Issued by NWS Northern Indiana

Home | Current Version | Previous Version | Text Only | Print | Product List | Glossary Off
Versions: 1 2 3 4 5 6 7 8 9 10 11 12 13 14 15 16 17 18 19 20 21 22 23 24 25 26 27 28 29 30 31 32 33 34 35 36 37 38 39 40 41 42 43 44 45 46 47 48 49 50

000
ASUS43 KIWX 072110
RWRIWX

KIWX WEATHER ROUNDUP
NATIONAL WEATHER SERVICE NORTHERN INDIANA
500 PM EDT TUE JUL 07 2015

NOTE: "FAIR" INDICATES FEW OR NO CLOUDS BELOW 12,000 FEET WITH NO
SIGNIFICANT WEATHER AND/OR OBSTRUCTIONS TO VISIBILITY.

* THESE STATIONS ARE NOT UNDER NWS QUALITY CONTROL. THEY ALSO MAY NOT
  REPORT WEATHER SUCH AS PRECIPITATION OR FOG.

INZ001>027-072200-
NORTHERN INDIANA

CITY           SKY/WX    TMP DP  RH WIND       PRES   REMARKS
GARY*          MOSUNNY   64  50  59 N17G29    30.05S
VALPARAISO     SUNNY     65  47  52 N17G29    30.03S
MICHIGAN CITY* SUNNY     63  46  55 N16G25    30.05R
LAPORTE*       SUNNY     66  49  54 N25       30.03S
KNOX*          MOSUNNY   64  48  55 N21       30.01R
SOUTH BEND     SUNNY     67  50  54 N18G24    30.01R
ELKHART*       SUNNY     68  50  52 NW14G20   29.99R
GOSHEN         CLOUDY    70  58  65 NW13      29.96S
MONTICELLO*    CLOUDY    69  56  64 N16       29.99R
LOGANSPORT*    CLOUDY    68  54  60 N13       29.98S
ROCHESTER*     MOSUNNY   70  57  64 N15G21    29.98S
WARSAW*          N/A     70  57  64 NW9G18    29.97S
ANGOLA*        PTSUNNY   66  57  72 N3        29.96R
FORT WAYNE     CLOUDY    69  63  81 N12       29.95R
HUNTINGTON*    CLOUDY    67  63  87 N7G16     29.95S
PERU/GRISSOM   CLOUDY    68  61  77 N18       29.96R
MARION*        CLOUDY    65  64  96 N6        29.96R

$$
INZ028>050-072200-
CENTRAL INDIANA

CITY           SKY/WX    TMP DP  RH WIND       PRES   REMARKS
LAFAYETTE      CLOUDY    66  55  67 N16G22    29.99R
KOKOMO*        CLOUDY    66  61  82 N13       29.96S
MUNCIE*        LGT RAIN  71  69  93 NW10      29.94R
INDIANAPOLIS   RAIN      68  64  87 N16       29.93R FOG

$$
MIZ043>046-050>051-056>058-064>065-071>073-077>080-072200-
SOUTHWEST LOWER MICHIGAN

CITY           SKY/WX    TMP DP  RH WIND       PRES   REMARKS
BATTLE CREEK   CLOUDY    70  58  65 N7        29.97R
BENTON HARBOR  SUNNY     63  49  60 N13G24    30.02R
COLDWATER*     CLOUDY    69  59  71 N8        29.96R
HILLSDALE*     DRIZZLE   67  64  91 N9        29.96R
HOLLAND        SUNNY     68  49  50 NW14G23   30.00R
GRAND RAPIDS   PTSUNNY   72  54  53 N14       29.98R
KALAMAZOO      CLOUDY    71  57  61 NW12      29.97R
STURGIS*       CLOUDY    70  61  73 NW10      29.96R
THREE RIVERS*  CLOUDY    69  58  67 NW10      29.97R

$$
OHZ001>008-015>018-024>025-072200-
NORTHWEST OHIO

CITY           SKY/WX    TMP DP  RH WIND       PRES   REMARKS
DEFIANCE       CLOUDY    70  65  84 NW10      29.93R
FINDLAY        LGT RAIN  73  70  90 W6        29.91S
TOLEDO EXPRESS LGT RAIN  67  66  97 N7        29.92R
TOLEDO METCALF LGT RAIN  69  64  84 NW20G29   29.93R
LIMA           LGT RAIN  72  70  93 SW5       29.92F

$$
AND FOR LAKE MICHIGAN COASTAL AND OPEN LAKE BUOY OBSERVATIONS

STATION/POSITION TEMP    WIND        PRES    VSBY  WAVE
                 AIR SEA DIR/SP/G                  HT/PER
                 (F)     (DEG/KT/KT) (MB)    (MI)  (FT/S)
CALUMET HARBOR    62     360/ 13/ 16   N/A
MICHIGAN CITY     60     350/ 24/ 26   N/A
BURNS HARBOR      60      20/ 19/ 22 1017.6R
SAINT JOSEPH      62     340/ 22/ 29 1017.3R
4 MI NW BRIDGMAN  60 63   40/ 21/ 25   N/A           8/ 2
MICHIGAN CITY     61 65   30/ 19/ 25   N/A           7/ 6

$$
&&


USA.gov is the U.S. government's official web portal to all federal, state and local government web resources and services.